Ainsworth, NE

1:25 AM CDT on May 27, 2018 (GMT -0500)
Ainsworth Municipal

Weather History for KANW - February, 2014

Change the Weather History Date:

Saturday, February 15, 2014

  Actual Average Record
Temperature  
Mean Temperature 38 °F -  
Max Temperature 52 °F 38 °F 64 °F (2011)
Min Temperature 25 °F 19 °F -14 °F (2007)
Degree Days  
Heating Degree Days 26    
Moisture  
Dew Point 28 °F    
Average Humidity 66    
Maximum Humidity 96    
Minimum Humidity 31    
Precipitation  
Precipitation 0.00 in - - ()
Sea Level Pressure  
Sea Level Pressure 29.85 in    
Wind  
Wind Speed 15 mph (WNW)    
Max Wind Speed 30 mph    
Max Gust Speed 40 mph    
Visibility 10 miles    
Events      
Averages and records for this station are not official NWS values.
T = Trace of Precipitation, MM = Missing Value Source: NWS Daily Summary

Daily Weather History Graph

Daily Weather History Graph

Search for Another Location

Airport or City:

Astronomy

Feb. 15, 2014 Rise Set
Actual Time 7:36 AM CST 6:12 PM CST
Civil Twilight 7:07 AM CST 6:40 PM CST
Nautical Twilight 6:34 AM CST 7:14 PM CST
Astronomical Twilight 6:02 AM CST 7:46 PM CST
Moon 7:16 PM CST (2/15) 7:34 AM CST (2/15)
Length of Visible Light 11h 33m
Length of Day
10h 35m
Waxing Gibbous, 99% of the Moon is Illuminated
Feb 15
Waxing Gibbous
Feb 22
Last Quarter
Mar 1
New
Mar 8
First Quarter
Mar 16
Full

Hourly Weather History & Observations

Time (CST) Temp. Windchill Dew Point Humidity Pressure Visibility Wind Dir Wind Speed Gust Speed Precip Events Conditions
12:15 AM 33.3 °F 23.7 °F 27.5 °F 79% 29.79 in 10.0 mi South 13.8 mph 18.4 mph N/A   Overcast
12:35 AM 33.8 °F 22.8 °F 27.5 °F 78% 29.78 in 10.0 mi South 18.4 mph 24.2 mph N/A   Overcast
12:55 AM 33.8 °F 24.3 °F 27.5 °F 78% 29.76 in 10.0 mi South 13.8 mph - N/A   Overcast
1:15 AM 33.8 °F 23.9 °F 27.5 °F 78% 29.76 in 10.0 mi South 15.0 mph - N/A   Overcast
1:35 AM 33.3 °F 22.5 °F 27.3 °F 79% 29.74 in 10.0 mi South 17.3 mph - N/A   Overcast
1:55 AM 33.3 °F 22.5 °F 27.5 °F 79% 29.71 in 10.0 mi South 17.3 mph - N/A   Overcast
2:15 AM 33.4 °F 22.7 °F 28.0 °F 81% 29.71 in 10.0 mi South 17.3 mph 23.0 mph N/A   Overcast
2:35 AM 34.3 °F 23.9 °F 28.4 °F 79% 29.70 in 10.0 mi South 17.3 mph 21.9 mph N/A   Overcast
2:55 AM 34.3 °F 23.9 °F 28.4 °F 79% 29.69 in 10.0 mi South 17.3 mph - N/A   Overcast
3:15 AM 33.8 °F 22.8 °F 28.4 °F 81% 29.68 in 10.0 mi South 18.4 mph - N/A   Scattered Clouds
3:35 AM 32.9 °F 21.6 °F 28.4 °F 84% 29.66 in 10.0 mi South 18.4 mph 24.2 mph N/A   Clear
3:55 AM 32.9 °F 21.6 °F 28.6 °F 84% 29.66 in 10.0 mi South 18.4 mph 23.0 mph N/A   Clear
4:15 AM 32.9 °F 23.2 °F 28.4 °F 84% 29.68 in 10.0 mi SSW 13.8 mph - N/A   Clear
4:35 AM 33.1 °F 23.0 °F 28.6 °F 84% 29.68 in 10.0 mi SSW 15.0 mph - N/A   Scattered Clouds
4:55 AM 33.8 °F 24.3 °F 28.4 °F 81% 29.67 in 10.0 mi SSW 13.8 mph - N/A   Clear
5:15 AM 34.3 °F 25.9 °F 28.6 °F 79% 29.69 in 10.0 mi SW 11.5 mph 17.3 mph N/A   Scattered Clouds
5:35 AM 34.7 °F 28.8 °F 28.9 °F 79% 29.69 in 10.0 mi SW 6.9 mph - N/A   Mostly Cloudy
5:55 AM 35.8 °F 30.1 °F 28.9 °F 76% 29.69 in 10.0 mi WSW 6.9 mph - N/A   Overcast
6:15 AM 36.7 °F 31.2 °F 29.1 °F 74% 29.70 in 10.0 mi West 6.9 mph - N/A   Overcast
6:35 AM 37.4 °F 32.1 °F 29.3 °F 73% 29.71 in 10.0 mi West 6.9 mph - N/A   Overcast
6:55 AM 38.3 °F 33.2 °F 29.7 °F 71% 29.72 in 10.0 mi WNW 6.9 mph - N/A   Overcast
7:15 AM 39.6 °F 33.5 °F 30.9 °F 71% 29.74 in 10.0 mi West 9.2 mph - N/A   Overcast
7:35 AM 40.8 °F 35.6 °F 31.8 °F 70% 29.74 in 10.0 mi West 8.1 mph - N/A   Overcast
7:55 AM 41.0 °F 34.7 °F 32.0 °F 70% 29.75 in 10.0 mi West 10.4 mph - N/A   Overcast
8:15 AM 41.9 °F 35.0 °F 32.5 °F 69% 29.75 in 10.0 mi West 12.7 mph - N/A   Overcast
8:35 AM 42.4 °F 35.7 °F 32.2 °F 67% 29.76 in 10.0 mi West 12.7 mph - N/A   Overcast
8:55 AM 43.0 °F 35.7 °F 32.0 °F 65% 29.77 in 10.0 mi West 15.0 mph - N/A   Overcast
9:15 AM 43.7 °F 36.6 °F 31.8 °F 63% 29.78 in 10.0 mi West 15.0 mph 21.9 mph N/A   Scattered Clouds
9:35 AM 45.5 °F 38.3 °F 31.6 °F 58% 29.78 in 10.0 mi WNW 17.3 mph - N/A   Clear
9:55 AM 45.9 °F 38.5 °F 30.6 °F 55% 29.78 in 10.0 mi WNW 18.4 mph 23.0 mph N/A   Clear
10:15 AM 45.9 °F 38.5 °F 31.1 °F 56% 29.80 in 10.0 mi WNW 18.4 mph 25.3 mph N/A   Clear
10:35 AM 47.5 °F - 30.2 °F 51% 29.80 in 10.0 mi WNW 23.0 mph 31.1 mph N/A   Clear
10:55 AM 49.1 °F - 29.7 °F 47% 29.81 in 10.0 mi WNW 23.0 mph 38.0 mph N/A   Clear
11:15 AM 50.4 °F - 28.6 °F 43% 29.82 in 10.0 mi WNW 24.2 mph 39.1 mph N/A   Clear
11:35 AM 50.7 °F - 28.0 °F 42% 29.83 in 10.0 mi WNW 23.0 mph 40.3 mph N/A   Clear
11:55 AM 50.7 °F - 25.0 °F 37% 29.83 in 10.0 mi NW 27.6 mph 39.1 mph N/A   Clear
12:15 PM 50.0 °F - 25.5 °F 39% 29.84 in 10.0 mi WNW 25.3 mph 34.5 mph N/A   Clear
12:35 PM 51.1 °F - 25.9 °F 38% 29.84 in 10.0 mi WNW 29.9 mph 38.0 mph N/A   Clear
12:55 PM 52.0 °F - 23.9 °F 34% 29.84 in 10.0 mi NW 28.8 mph 35.7 mph N/A   Scattered Clouds
1:15 PM 51.8 °F - 22.6 °F 32% 29.84 in 10.0 mi NW 26.5 mph 36.8 mph N/A   Clear
1:35 PM 51.8 °F - 22.5 °F 32% 29.84 in 10.0 mi WNW 26.5 mph 38.0 mph N/A   Clear
1:55 PM 52.2 °F - 22.8 °F 32% 29.85 in 10.0 mi NW 26.5 mph 35.7 mph N/A   Scattered Clouds
2:15 PM 52.5 °F - 22.5 °F 31% 29.85 in 10.0 mi WNW 23.0 mph 35.7 mph N/A   Scattered Clouds
2:35 PM 52.0 °F - 22.6 °F 32% 29.87 in 10.0 mi NW 24.2 mph 39.1 mph N/A   Scattered Clouds
2:55 PM 52.7 °F - 23.5 °F 32% 29.87 in 10.0 mi NW 27.6 mph 35.7 mph N/A   Scattered Clouds
3:35 PM 52.2 °F - 21.9 °F 31% 29.90 in 10.0 mi NW 26.5 mph 39.1 mph N/A   Scattered Clouds
3:55 PM 50.9 °F - 26.1 °F 38% 29.92 in 10.0 mi NNW 21.9 mph 25.3 mph N/A   Clear
4:15 PM 50.2 °F - 25.7 °F 39% 29.93 in 10.0 mi NNW 20.7 mph - N/A   Clear
4:35 PM 50.2 °F - 25.0 °F 37% 29.95 in 10.0 mi NW 21.9 mph 26.5 mph N/A   Clear
4:55 PM 49.1 °F - 25.0 °F 39% 29.95 in 10.0 mi NNW 19.6 mph 27.6 mph N/A   Clear
5:15 PM 47.5 °F - 26.4 °F 44% 29.96 in 10.0 mi NNW 15.0 mph 19.6 mph N/A   Clear
5:35 PM 45.9 °F 39.7 °F 26.6 °F 47% 29.97 in 10.0 mi NNW 13.8 mph - N/A   Clear
5:55 PM 43.5 °F 37.9 °F 26.8 °F 52% 29.98 in 10.0 mi NNW 10.4 mph - N/A   Clear
6:15 PM 41.7 °F 36.1 °F 27.1 °F 56% 29.99 in 10.0 mi NNW 9.2 mph - N/A   Clear
6:35 PM 39.2 °F 33.6 °F 27.0 °F 62% 30.01 in 10.0 mi NNW 8.1 mph - N/A   Clear
6:55 PM 38.1 °F 31.2 °F 27.0 °F 64% 30.01 in 10.0 mi North 10.4 mph - N/A   Clear
7:15 PM 36.0 °F 29.6 °F 27.9 °F 72% 30.02 in 10.0 mi North 8.1 mph - N/A   Clear
7:35 PM 32.9 °F 24.7 °F 27.3 °F 80% 30.03 in 10.0 mi North 10.4 mph - N/A   Clear
7:55 PM 33.8 °F 25.8 °F 28.9 °F 82% 30.03 in 10.0 mi North 10.4 mph - N/A   Clear
8:15 PM 32.2 °F 25.0 °F 28.4 °F 86% 30.04 in 10.0 mi North 8.1 mph - N/A   Clear
8:35 PM 31.6 °F 23.1 °F 28.4 °F 88% 30.03 in 10.0 mi North 10.4 mph - N/A   Clear
8:55 PM 32.0 °F 23.6 °F 29.1 °F 89% 30.02 in 10.0 mi NNE 10.4 mph - N/A   Clear
9:15 PM 32.0 °F 24.8 °F 28.8 °F 88% 30.03 in 10.0 mi NNE 8.1 mph - N/A   Clear
9:35 PM 31.1 °F 24.5 °F 28.0 °F 88% 30.04 in 10.0 mi North 6.9 mph - N/A   Clear
9:55 PM 30.9 °F 26.2 °F 28.0 °F 89% 30.04 in 10.0 mi NNW 4.6 mph - N/A   Clear
10:15 PM 28.4 °F 24.6 °F 26.2 °F 92% 30.04 in 10.0 mi WNW 3.5 mph - N/A   Clear
10:35 PM 25.5 °F - 23.9 °F 94% 30.04 in 10.0 mi Calm Calm - N/A   Scattered Clouds
10:55 PM 30.2 °F 26.7 °F 28.4 °F 93% 30.04 in 10.0 mi WNW 3.5 mph - N/A   Overcast
11:15 PM 30.4 °F - 28.0 °F 91% 30.04 in 10.0 mi Calm Calm - N/A   Overcast
11:35 PM 29.3 °F 25.6 °F 27.5 °F 93% 30.03 in 10.0 mi NE 3.5 mph - N/A   Overcast
11:55 PM 29.3 °F - 28.2 °F 96% 30.03 in 7.0 mi Calm Calm - N/A   Overcast